Vorticity
nan nan nan nan nan nan nan nan nan nan nan nan nan nan nan nan nan nan nan nan nan nan nan nan nan nan nan nan nan nan nan nan nan nan nan nan nan nan nan nan nan nan nan
nan 9 6 8 8 7 8 8 7 6 6 6 6 6 5 7 8 9 8 6 3 4 9 12 12 8 6 4 3 3 4 5 3 4 4 2 2 3 4 3 4 4 nan
nan 7 6 7 7 7 7 8 7 7 7 7 6 6 6 6 5 6 9 10 7 1 2 5 7 8 8 8 7 4 7 9 5 5 3 3 3 3 3 3 3 4 nan
nan 5 7 7 8 7 5 6 7 6 7 5 5 6 8 7 6 6 6 4 5 10 7 4 2 2 5 6 7 7 7 4 11 10 4 8 6 4 3 3 2 2 nan
nan 6 7 9 6 6 8 7 7 7 7 7 6 6 6 9 6 5 5 7 4 3 8 10 4 6 3 4 5 6 7 7 6 8 6 6 9 8 10 8 4 3 nan
nan 6 8 7 6 6 7 8 7 5 5 7 7 9 7 10 7 7 7 6 6 5 6 2 9 15 8 3 2 7 8 9 8 7 6 5 7 8 11 12 11 6 nan
nan 5 8 7 6 8 8 7 6 7 5 5 8 7 11 12 6 7 7 6 6 8 8 6 6 5 13 9 4 7 6 8 9 9 8 7 7 7 7 8 15 12 nan
nan 9 7 7 7 8 8 6 5 5 5 7 9 9 11 12 12 6 7 7 7 7 8 8 5 6 5 6 13 14 10 9 10 8 8 9 9 8 8 8 8 12 nan
nan 6 7 7 8 6 7 7 7 5 9 7 7 8 9 4 7 14 12 8 6 6 7 8 8 8 7 7 7 13 14 9 10 10 10 9 8 8 8 9 9 8 nan
nan 9 7 7 7 6 8 7 7 6 9 8 10 8 5 5 6 6 5 11 13 8 5 6 9 9 7 7 10 14 8 6 6 8 8 8 8 7 7 8 8 7 nan
nan 12 9 8 6 7 10 9 8 7 6 7 7 8 8 9 8 5 5 8 8 8 8 9 9 9 10 8 11 11 5 4 5 6 7 7 7 7 7 7 6 6 nan
nan 13 8 8 7 8 10 9 7 8 5 7 6 8 9 8 8 9 9 8 8 9 8 9 10 9 7 8 13 9 3 2 1 3 4 5 7 8 8 9 9 9 nan
nan 12 9 7 8 12 8 7 6 7 7 8 7 6 8 8 8 9 9 9 8 7 9 8 11 11 9 8 15 13 5 2 4 4 4 4 7 8 9 10 10 11 nan
nan 10 10 10 12 9 6 7 6 7 7 7 8 7 7 9 10 8 7 8 9 8 8 9 10 10 12 9 14 8 4 12 11 3 2 5 8 9 9 10 10 10 nan
nan 14 11 11 12 6 7 7 7 8 7 7 8 8 7 8 8 8 8 7 8 9 7 9 8 9 12 11 5 6 9 14 4 -2 3 8 8 7 8 9 9 10 nan
nan 14 14 10 6 7 8 8 6 6 6 7 8 8 7 7 8 9 8 8 7 8 8 9 9 8 8 10 11 8 7 8 7 10 12 10 6 6 7 8 8 9 nan
nan 11 10 9 6 7 8 6 5 6 9 7 6 9 8 7 7 7 9 7 8 8 9 7 7 9 8 9 11 8 10 8 12 16 15 13 6 5 7 7 8 10 nan
nan 9 9 9 8 7 5 8 8 6 9 9 8 8 8 9 8 9 8 8 8 8 9 8 9 10 10 11 10 10 9 8 9 10 13 8 5 6 6 8 8 9 nan
nan 8 8 10 11 9 7 5 5 8 8 9 9 9 9 8 9 9 8 8 8 9 9 11 10 10 10 9 10 14 10 9 10 13 15 8 6 9 8 8 9 8 nan
nan 8 8 7 6 8 9 7 8 10 10 9 8 9 9 10 11 10 10 9 9 9 8 9 9 8 10 11 10 11 12 10 7 11 12 15 17 17 14 13 12 12 nan
nan 9 5 7 9 6 15 15 12 9 9 9 10 10 9 10 10 9 9 8 8 8 8 9 11 11 8 9 10 10 10 11 8 10 11 11 12 12 15 19 20 15 nan
nan 8 8 5 7 10 15 12 11 8 8 9 9 9 10 14 17 13 8 7 6 6 7 6 8 9 9 8 9 9 9 8 10 10 10 9 9 9 11 12 16 15 nan
nan 6 7 8 9 15 10 4 5 6 8 8 8 9 10 10 10 14 20 16 9 8 5 7 8 8 9 10 8 8 10 9 9 7 10 10 11 10 9 10 9 11 nan
nan 10 11 10 8 14 14 7 4 4 8 8 9 9 9 9 8 13 11 10 11 18 16 12 8 8 11 13 15 12 10 11 11 10 10 11 9 10 9 8 8 18 nan
nan 10 9 9 11 13 13 8 9 10 10 12 11 11 11 10 9 11 16 14 12 12 16 14 10 10 9 9 10 10 12 11 11 10 10 9 9 10 9 9 16 15 nan
nan nan nan nan nan nan nan nan nan nan nan nan nan nan nan nan nan nan nan nan nan nan nan nan nan nan nan nan nan nan nan nan nan nan nan nan nan nan nan nan nan nan nan
CAPE
617 537 483 88 29 1 0 0 0 0 0 0 0 0 0 0 0 0 0 0 0 0 0 17 9 2 0 0 0 0 0 0 0 0 0 0 0 0 0 0 0 0 0
625 614 229 57 5 12 10 1 0 0 0 0 0 0 0 0 0 0 0 0 0 0 0 0 1 2 0 0 0 0 0 1 0 0 0 0 0 0 0 0 0 0 0
492 412 194 165 38 2 0 0 0 0 0 0 0 0 0 0 0 0 0 0 0 0 0 0 0 0 0 0 0 1 6 15 19 6 0 0 0 0 0 0 0 0 0
457 452 273 106 0 0 0 0 0 0 0 0 0 0 0 0 0 0 0 0 0 0 0 0 0 0 0 0 0 0 5 9 19 23 13 24 10 3 0 0 0 0 0
430 328 197 5 0 0 0 0 0 0 0 0 0 0 0 0 0 0 0 0 0 0 0 0 0 0 0 0 0 0 0 0 1 20 38 50 44 54 51 17 9 1 0
361 268 98 0 0 0 0 0 0 0 0 0 0 0 0 0 0 0 0 0 0 0 0 0 0 0 0 0 0 0 0 0 1 6 17 24 17 9 7 20 60 44 6
310 231 45 3 0 0 0 0 0 0 0 0 0 0 0 0 0 0 0 0 0 0 0 0 0 0 0 0 0 0 0 0 0 1 3 0 0 3 1 3 31 56 47
3 175 37 0 0 0 0 0 0 0 0 0 0 0 0 0 0 0 0 0 0 0 0 0 0 0 0 0 0 0 0 0 0 0 0 0 0 0 2 4 7 51 69
82 57 0 0 0 0 0 0 0 0 4 2 0 0 0 0 0 0 0 0 0 0 1 0 1 3 2 1 1 5 0 0 0 0 0 0 0 0 2 9 26 43 88
0 0 0 0 0 0 0 0 0 0 0 2 10 0 0 0 0 0 0 0 0 11 14 1 1 3 4 1 1 0 0 0 0 0 0 0 0 2 17 34 46 53 64
0 0 0 0 0 0 0 1 0 0 0 0 0 0 0 0 0 0 0 0 1 0 0 0 1 0 4 1 3 0 0 0 0 0 0 0 0 0 11 31 61 95 117
0 0 0 0 0 0 0 0 0 0 0 0 0 0 0 0 0 0 0 1 0 0 0 0 0 4 4 7 1 0 0 0 0 0 0 0 0 0 0 2 26 67 112
0 6 1 9 6 0 0 0 0 0 0 0 0 0 0 0 0 0 0 0 0 0 0 0 0 4 1 6 5 0 0 0 0 0 0 0 0 0 0 0 0 5 13
13 15 8 16 5 0 0 0 0 0 0 0 0 0 0 0 1 0 0 0 0 0 0 0 1 9 15 20 1 0 0 9 0 0 0 0 0 0 0 0 1 5 10
10 7 21 10 3 0 0 0 0 0 0 0 1 4 5 3 2 1 3 3 5 7 0 0 1 7 23 23 8 2 18 52 0 0 0 0 0 0 0 0 3 8 11
20 13 10 1 0 0 0 0 0 0 0 3 5 9 14 11 6 3 5 12 11 14 18 1 4 32 39 9 26 3 15 33 6 3 1 0 0 0 0 0 0 1 5
0 0 0 0 0 0 0 0 0 0 1 12 8 12 14 8 7 7 11 13 16 30 43 27 29 38 45 64 66 48 44 29 67 30 12 0 0 0 0 0 0 0 2
0 0 0 2 5 0 0 0 5 0 3 6 11 16 6 4 13 13 23 24 29 44 62 60 39 47 76 61 70 74 7 13 52 14 10 0 0 0 0 0 0 0 0
0 3 0 0 0 0 3 1 1 3 5 8 9 2 1 3 10 21 30 33 45 21 54 69 67 78 66 47 77 47 46 76 34 30 18 0 0 0 0 0 0 0 0
0 0 0 0 0 1 0 0 1 2 2 1 0 0 0 0 3 14 19 44 42 67 64 69 70 47 25 34 78 75 75 78 42 13 2 3 6 9 3 1 0 0 0
0 0 0 0 0 0 0 2 0 0 0 0 0 0 0 0 0 1 5 15 30 27 49 62 52 43 54 62 80 82 69 70 60 18 16 50 39 18 19 22 22 28 5
0 0 0 0 0 4 0 0 0 0 0 0 0 0 0 0 0 0 0 0 0 23 55 51 63 55 64 109 96 64 54 40 41 47 40 57 30 20 27 27 5 0 0
0 0 0 3 2 0 0 0 0 0 0 0 0 0 0 0 4 22 26 0 0 0 0 49 57 44 82 87 41 20 20 37 41 24 40 32 33 53 42 12 32 4 4
1 7 1 0 0 0 0 0 0 0 0 0 0 1 15 26 37 31 58 68 69 58 37 8 7 22 57 49 32 27 21 11 14 11 21 60 56 57 58 44 21 41 29
0 0 0 0 0 0 0 0 0 0 2 1 3 2 5 14 3 0 16 62 50 52 27 0 0 2 0 0 0 2 25 48 51 30 39 44 57 27 36 31 49 1 0
0 0 0 0 0 0 0 0 0 0 0 3 0 0 0 0 0 0 17 47 53 8 6 14 39 1 0 0 0 0 2 26 29 38 28 58 26 25 23 29 21 38 53